[[{"header":{"parameterUnit":"m.s-1","parameterCategory":1,"la1":30.2991,"la2":30.254,"lo1":-89.0895,"lo2":-89.0444,"dy":0.0017,"dx":0.0017,"nx":28,"ny":28,"refTime":"2024-05-30T03:00:00:Z","depth":0,"parameterNumber":2,"parameterNumberName":"U-component_of_WINDS"},"data":[0,0,0,0,0,0,0,0,0,0,0,0,0,0,0,0,0,0,0,0,0,0,0,0,0,0,0,0,0,0,0,0,0,0,0,0,0,0,0,0,0,0,0,0,0,0,0,0,0,0,0,0,0,0,0,0,0,0,-4.8774,-4.8775,0,-4.888,-4.8881,-4.8883,-4.8843,-4.884,-4.8838,-4.8836,-4.8944,-4.8948,-4.8954,0,0,0,0,0,0,0,0,0,0,0,0,0,-4.8538,-4.8542,-4.8774,-4.8775,-4.8777,-4.888,-4.8881,-4.8883,-4.8843,-4.884,-4.8837,-4.8834,-4.8942,-4.8948,-4.8954,0,0,0,0,0,0,0,0,0,0,0,0,0,-4.8642,-4.8544,-4.8774,-4.8769,-4.877,-4.888,-4.8882,-4.8883,-4.8844,-4.884,-4.8836,-4.8833,-4.894,-4.8947,-4.8955,-4.9075,0,0,-4.8978,-4.8982,0,0,0,0,0,0,0,0,-4.8636,-4.865,-4.8769,-4.877,-4.8771,-4.8845,-4.8838,-4.8948,-4.8845,-4.8816,-4.8835,-4.8831,-4.8913,-4.8923,-4.8951,-4.908,-4.9085,-4.8979,-4.8984,-4.8987,-4.8989,0,0,0,0,0,0,0,-4.8629,-4.8646,-4.8816,-4.877,-4.8772,-4.8762,-4.8773,-4.8858,-4.8884,-4.8818,-4.8815,-4.8828,-4.8913,-4.8944,-4.8953,-4.9086,-4.8979,-4.8986,-4.899,-4.8993,-4.9321,-4.9325,0,0,0,0,0,0,-4.8621,-4.864,-4.8813,-4.8819,-4.8693,-4.877,-4.8782,-4.8824,-4.8883,-4.8888,-4.8831,-4.8826,-4.8932,-4.8944,-4.8957,-4.9101,-4.8987,-4.8994,-4.8999,-4.9317,-4.9322,-4.9326,0,0,0,0,0,0,-4.8616,-4.8637,-4.8808,-4.8729,-4.875,-4.8777,-4.8826,-4.8828,-4.8859,-4.8893,-4.8897,-4.8858,-4.893,-4.8946,-4.9046,-4.9104,-4.8998,-4.9005,-4.9312,-4.9318,-4.9324,-4.939,0,0,0,0,0,0,-4.861,-4.8635,-4.8681,-4.873,-4.8754,-4.8896,-4.883,-4.8833,-4.8872,-4.8866,-4.8918,-4.8924,-4.8928,-4.9035,-4.9054,-4.9113,-4.9011,-4.9307,-4.9315,-4.9322,-4.9383,-4.9398,-4.941,0,0,0,0,0,-4.8601,-4.8695,-4.8683,-4.8704,-4.8812,-4.8899,-4.8913,-4.8916,-4.8877,-4.8923,-4.8946,-4.8922,-4.9096,-4.9046,-4.9067,-4.9128,-4.9303,-4.9313,-4.9322,-4.9376,-4.9395,-4.941,0,0,0,0,0,0,-4.865,-4.8701,-4.8689,-4.8801,-4.8846,-4.8892,-4.8949,-4.8935,-4.8992,-4.8984,-4.8986,-4.8999,-4.9102,-4.9126,-4.9069,-4.9249,-4.9194,-4.9207,-4.9228,-4.9246,-4.9259,-4.925,-4.9017,0,0,0,0,0,-4.8674,-4.8741,-4.8782,-4.8877,-4.89,-4.8922,-4.896,-4.8959,-4.9006,-4.9024,-4.9054,-4.91,-4.9165,-4.9207,-4.9269,-4.9388,-4.9398,-4.9441,-4.9455,-4.9466,-4.9477,-4.9541,-4.956,-4.9356,-4.9356,-4.9356,0,0,-4.8724,-4.876,-4.8802,-4.8888,-4.8922,-4.8991,-4.8938,-4.9012,-4.9063,-4.9035,-4.9131,-4.9156,-4.9207,-4.9317,-4.9367,-4.934,-4.9536,-4.9478,-4.9487,-4.9491,-4.9553,-4.9572,-4.9589,-4.9363,-4.9361,-4.9361,0,0,-4.8849,-4.8884,-4.8966,-4.9003,-4.9057,-4.9071,-4.9092,-4.9141,-4.9156,-4.9253,-4.9233,-4.9295,-4.9407,-4.9445,-4.9478,-4.9623,-4.9603,-4.9643,-4.9713,-4.9776,-4.9792,-4.9806,-4.9856,-4.9874,-4.9654,-4.9655,-4.9655,0,-4.8903,-4.9005,-4.9011,-4.9088,-4.9126,-4.9106,-4.919,-4.9226,-4.9297,-4.9324,-4.9294,-4.9435,-4.9469,-4.9587,-4.9622,-4.9652,-4.9674,-4.9634,-4.979,-4.9804,-4.9817,-4.9865,-4.9883,-4.9659,-4.9658,-4.9658,-4.9658,0,-4.9069,-4.9141,-4.9202,-4.9272,-4.9318,-4.9398,-4.9416,-4.9462,-4.9459,-4.9477,-4.9576,-4.9617,-4.9686,-4.9716,-4.9713,-4.9835,-4.9816,-4.9789,-4.9732,-4.9841,-4.9885,-4.9904,-4.9665,-4.9663,-4.9662,-4.9661,0,0,-4.9222,-4.9297,-4.9319,-4.9351,-4.9411,-4.9467,-4.9548,-4.9616,-4.9655,-4.9707,-4.9773,-4.9871,-4.9846,-4.9885,-4.9887,-4.9943,-5.0053,-4.9908,-4.991,-4.9931,-5.0188,-5.0206,-5.0227,-5.0043,-5.0046,-5.0049,-5.0183,0,-4.935,-4.949,-4.9499,-4.9625,-4.9692,-4.9676,-4.9747,-4.9791,-4.9812,-4.9871,-4.9894,-4.9962,-4.9925,-4.9948,-5.0003,-5.0028,-5.0104,-5.0019,-5.0103,-5.0106,-5.0086,-5.025,-5.0269,-5.0393,-5.0201,-5.0204,-5.0206,0,-4.9516,-4.9573,-4.9706,-4.9759,-4.9787,-4.9849,-4.9914,-4.9972,-5.0024,-5.0034,-5.008,-5.0075,-5.0158,-5.0103,-5.0217,-5.0159,-5.0195,-5.0214,-5.0219,-5.0223,-5.0159,-5.0256,-5.0433,-5.045,-5.0234,-5.0231,-5.0229,0,-4.9611,-4.9722,-4.9816,-4.9845,-4.9908,-4.9953,-4.9981,-5.003,-5.0071,-5.0129,-5.0155,-5.0222,-5.0258,-5.031,-5.0324,-5.0283,-5.0438,-5.0384,-5.0448,-5.0448,-5.0477,-5.0474,-5.0659,-5.0507,-5.0507,-5.0507,-5.0506,0,-4.975,-4.9831,-4.986,-4.9917,-5.0009,-5.002,-5.0111,-5.0137,-5.0181,-5.0243,-5.0236,-5.0295,-5.0311,-5.0374,-5.0386,-5.0478,-5.0495,-5.0506,-5.0507,-5.0504,-5.0502,-5.0524,-5.0515,-5.0512,-5.051,-5.0509,-5.0509,0,-4.9869,-4.9892,-4.9993,-5.0047,-5.0062,-5.0127,-5.0173,-5.0229,-5.025,-5.0329,-5.0349,-5.0381,-5.0455,-5.0475,-5.0563,-5.0571,-5.0679,-5.0675,-5.0661,-5.066,-5.0722,-5.0715,-5.0924,-5.0951,-5.0785,-5.0786,-5.0788,0,-4.9954,-5.0017,-5.0078,-5.0119,-5.015,-5.0217,-5.026,-5.0275,-5.032,-5.0386,-5.0433,-5.0507,-5.0565,-5.0683,-5.0715,-5.0783,-5.0778,-5.0847,-5.0787,-5.0783,-5.0775,-5.077,-5.0775,-5.0856,-5.0858,-5.0859,-5.086,0,-5.0102,-5.0111,-5.0172,-5.0239,-5.0291,-5.0344,-5.0395,-5.043,-5.0453,-5.0504,-5.0579,-5.0625,-5.0716,-5.0788,-5.0858,-5.0888,-5.0878,-5.088,-5.0898,-5.0893,-5.0881,-5.0886,-5.0688,-5.0873,-5.0872,-5.0871,-5.087,-5.087,-5.0204,-5.0259,-5.0311,-5.0381,-5.0421,-5.047,-5.0525,-5.0554,-5.0617,-5.0692,-5.0698,-5.078,-5.0833,-5.0925,-5.0959,-5.1024,-5.1003,-5.103,-5.1036,-5.1041,-5.1045,-5.0875,-5.1037,-5.1037,-5.1036,-5.1036,-5.1036,0,-5.0349,-5.0382,-5.0447,-5.0519,-5.0574,-5.0563,-5.062,-5.0667,-5.0738,-5.0789,-5.0847,-5.0935,-5.1006,-5.1045,-5.1116,-5.116,-5.1157,-5.1178,-5.1172,-5.118,-5.106,-5.1036,-5.1179,-5.1179,-5.1179,-5.1179,-5.1179,-5.1179,-5.043,-5.0522,-5.0538,-5.0651,-5.0684,-5.0764,-5.0797,-5.0843,-5.0883,-5.0981,-5.104,-5.1066,-5.1112,-5.1187,-5.1252,-5.1261,-5.1286,-5.1309,-5.1316,-5.1203,-5.1188,-5.1174,-5.1151,-5.1315,-5.1316,-5.1429,-5.143,-5.1431]},{"header":{"parameterUnit":"m.s-1","parameterCategory":1,"la1":30.2991,"la2":30.254,"lo1":-89.0895,"lo2":-89.0444,"dy":0.0017,"dx":0.0017,"nx":28,"ny":28,"refTime":"2024-05-30T03:00:00:Z","depth":0,"parameterNumber":3,"parameterNumberName":"V-component_of_WINDS"},"data":[0,0,0,0,0,0,0,0,0,0,0,0,0,0,0,0,0,0,0,0,0,0,0,0,0,0,0,0,0,0,0,0,0,0,0,0,0,0,0,0,0,0,0,0,0,0,0,0,0,0,0,0,0,0,0,0,0,0,2.1362,2.1361,0,2.1247,2.1246,2.1244,2.1124,2.1123,2.1121,2.1119,2.0996,2.0994,2.0992,0,0,0,0,0,0,0,0,0,0,0,0,0,2.1476,2.1475,2.1362,2.1361,2.1359,2.1247,2.1246,2.1244,2.1125,2.1123,2.1121,2.1119,2.0997,2.0994,2.0992,0,0,0,0,0,0,0,0,0,0,0,0,0,2.14,2.1474,2.1363,2.1286,2.1278,2.1248,2.1246,2.1244,2.1125,2.1122,2.112,2.1118,2.0997,2.0995,2.0992,2.1025,0,0,2.0984,2.0983,0,0,0,0,0,0,0,0,2.1405,2.1396,2.1299,2.1292,2.1283,2.1198,2.124,2.117,2.1126,2.1183,2.1119,2.1117,2.1065,2.1056,2.104,2.1019,2.1014,2.0984,2.0982,2.0981,2.098,0,0,0,0,0,0,0,2.141,2.1401,2.1316,2.1298,2.1288,2.1257,2.1244,2.1227,2.1139,2.1178,2.1169,2.1157,2.106,2.1043,2.1036,2.1012,2.0984,2.0981,2.098,2.0979,2.1015,2.1018,0,0,0,0,0,0,2.1428,2.1406,2.132,2.1313,2.1339,2.1257,2.1242,2.1227,2.1139,2.1123,2.1159,2.1152,2.1048,2.1039,2.1031,2.1065,2.0981,2.0979,2.0977,2.1013,2.1016,2.1019,0,0,0,0,0,0,2.1431,2.1421,2.1325,2.1357,2.1342,2.1258,2.1242,2.1226,2.1209,2.1125,2.1108,2.1158,2.1046,2.1035,2.1028,2.1059,2.0977,2.0975,2.101,2.1014,2.1017,2.1132,0,0,0,0,0,0,2.1434,2.1423,2.1435,2.1358,2.1341,2.1325,2.1244,2.1226,2.1206,2.1195,2.112,2.1105,2.1043,2.1033,2.1026,2.1054,2.0973,2.1006,2.1011,2.1016,2.1125,2.1139,2.1151,0,0,0,0,0,2.1439,2.147,2.1436,2.1426,2.1355,2.1327,2.1317,2.1247,2.1209,2.122,2.1166,2.1107,2.1058,2.1033,2.1024,2.1052,2.1004,2.101,2.1016,2.1119,2.1136,2.1151,0,0,0,0,0,0,2.1549,2.1458,2.142,2.1427,2.1386,2.1307,2.1318,2.1268,2.1234,2.1225,2.1139,2.1123,2.1127,2.1089,2.1063,2.108,2.1023,2.1027,2.1104,2.112,2.1133,2.1141,2.0971,0,0,0,0,0,2.1575,2.1562,2.1482,2.1497,2.1478,2.1403,2.1388,2.1338,2.1291,2.1272,2.1218,2.1173,2.1148,2.1132,2.1104,2.112,2.1102,2.1135,2.1148,2.116,2.1163,2.117,2.1184,2.1037,2.1037,2.1037,0,0,2.1627,2.1576,2.1572,2.1518,2.148,2.1467,2.1388,2.1377,2.1366,2.127,2.126,2.122,2.1165,2.117,2.117,2.1138,2.12,2.1167,2.1176,2.1173,2.1177,2.1191,2.1204,2.1041,2.104,2.104,0,0,2.1714,2.1675,2.1683,2.1648,2.1593,2.1543,2.1546,2.1475,2.1445,2.1436,2.1364,2.135,2.1307,2.1271,2.1247,2.1327,2.1271,2.1321,2.1388,2.1396,2.1407,2.1417,2.1445,2.1456,2.1325,2.1325,2.1326,0,2.1784,2.1763,2.1693,2.1687,2.1666,2.1582,2.159,2.1559,2.1497,2.1484,2.1451,2.1398,2.1354,2.1351,2.1371,2.1355,2.1354,2.1327,2.1412,2.1421,2.1429,2.1454,2.1465,2.1332,2.1331,2.133,2.133,0,2.1853,2.1839,2.1852,2.1798,2.1778,2.1779,2.1709,2.1698,2.1652,2.1606,2.1598,2.1544,2.1504,2.1501,2.1454,2.1491,2.1474,2.1428,2.1367,2.145,2.1473,2.1482,2.1341,2.1338,2.1337,2.1335,0,0,2.2,2.1912,2.1917,2.1892,2.1828,2.1816,2.1815,2.1778,2.177,2.1732,2.1727,2.1696,2.1655,2.1628,2.1577,2.1585,2.1652,2.1537,2.1535,2.1559,2.1689,2.1723,2.1735,2.1616,2.1618,2.1619,2.1694,0,2.2075,2.2068,2.2007,2.2017,2.2004,2.1927,2.1926,2.1886,2.1845,2.1827,2.178,2.1759,2.1706,2.1689,2.1694,2.1643,2.1676,2.1637,2.161,2.161,2.1623,2.1747,2.1781,2.1854,2.1702,2.1703,2.1705,0,2.2159,2.213,2.2139,2.2078,2.207,2.207,2.2033,2.2018,2.1973,2.1942,2.1916,2.186,2.1854,2.1801,2.1791,2.1765,2.1751,2.1726,2.1727,2.1719,2.166,2.1741,2.1875,2.1886,2.1718,2.1717,2.1716,0,2.2265,2.2228,2.2229,2.221,2.2139,2.2141,2.2111,2.2064,2.2047,2.2015,2.2003,2.1971,2.1953,2.1929,2.1866,2.1833,2.1864,2.1805,2.1836,2.1838,2.1843,2.1843,2.1975,2.1839,2.1839,2.1838,2.1838,0,2.2353,2.2361,2.2276,2.2276,2.2284,2.2215,2.2225,2.2187,2.2147,2.2138,2.207,2.2064,2.1983,2.1967,2.1919,2.1918,2.191,2.1884,2.1871,2.1889,2.1892,2.1876,2.1868,2.1841,2.184,2.184,2.1839,0,2.247,2.2414,2.241,2.2345,2.2329,2.2338,2.2281,2.2279,2.2236,2.2226,2.222,2.2151,2.2129,2.2066,2.2027,2.1995,2.2008,2.1984,2.2024,2.2014,2.2049,2.2046,2.2173,2.2186,2.2045,2.2046,2.2048,0,2.2528,2.2533,2.2471,2.2462,2.2436,2.2422,2.2405,2.2339,2.2325,2.2276,2.228,2.2254,2.2229,2.2198,2.2144,2.2115,2.2088,2.2135,2.2083,2.2102,2.2087,2.2086,2.2086,2.2145,2.2147,2.2148,2.215,0,2.2637,2.261,2.259,2.2562,2.2546,2.252,2.2489,2.2485,2.2411,2.2399,2.2378,2.2359,2.2323,2.2297,2.2261,2.2228,2.2177,2.2168,2.2173,2.219,2.2212,2.22,2.2052,2.2164,2.2162,2.2161,2.2161,2.216,2.2725,2.2727,2.2684,2.2665,2.2637,2.2611,2.2607,2.2565,2.2547,2.2513,2.2475,2.2459,2.2416,2.2362,2.2335,2.232,2.2292,2.23,2.2302,2.2304,2.2313,2.2218,2.2313,2.2313,2.2312,2.2312,2.2312,0,2.2829,2.2799,2.2783,2.2745,2.2731,2.2688,2.2653,2.2643,2.263,2.2596,2.2575,2.2552,2.2528,2.2474,2.2446,2.2445,2.242,2.2439,2.2437,2.243,2.234,2.2337,2.2459,2.2459,2.2459,2.2459,2.2459,2.2459,2.2881,2.2882,2.2852,2.2839,2.2808,2.2793,2.2777,2.2754,2.2726,2.2704,2.2686,2.2652,2.261,2.2579,2.2556,2.254,2.2532,2.2559,2.2536,2.2451,2.2437,2.2423,2.242,2.2558,2.2558,2.2627,2.2628,2.2628]}]]